User: anonymous   Login
Location: Columbia
(38.9520°N, 92.3340°W)
Time: 15:03:20
(UTC-05:00)
Language:

Iridium 22 - Orbit

View from above orbital plane
View from above orbital plane
View from above satellite
View from above satellite

Ground track
Ground track

The orbit data is extracted from the following two-line orbital elements,

1 24907U 97043E   17266.42577128  .00000109  00000-0  32028-4 0  9992
2 24907  86.3999 215.0274 0002337  82.9127 277.2335 14.34214702 51916
Epoch (UTC): 23 September 2017 10:13:06
Eccentricity: 0.0002337
inclination: 86.3999°
perigee height: 776 km
apogee height: 779 km
right ascension of ascending node: 215.0274°
argument of perigee: 82.9127°
revolutions per day: 14.34214702
mean anomaly at epoch: 277.2335°
orbit number at epoch: 5191

The dashed part of the orbit path shows where the satellite is in the earth's shadow,  

DLR